Weather History for Marietta, GA

Change the Weather History Date:

Tuesday, March 5, 2013

  Actual Average Record
Temperature  
Mean Temperature 52 °F -  
Max Temperature 64 °F 57 °F 77 °F (1997)
Min Temperature 39 °F 38 °F 21 °F (2002)
Degree Days  
Heating Degree Days 14    
Growing Degree Days 2 (Base 50)    
Moisture  
Dew Point 46 °F    
Average Humidity 72    
Maximum Humidity 94    
Minimum Humidity 47    
Precipitation  
Precipitation 0.32 in - - ()
Sea Level Pressure  
Sea Level Pressure 29.88 in    
Wind  
Wind Speed 11 mph (SW)    
Max Wind Speed 31 mph    
Max Gust Speed 43 mph    
Visibility 9 miles    
Events Rain , Thunderstorm    
Averages and records for this station are not official NWS values.
T = Trace of Precipitation, MM = Missing Value Source: NWS Daily Summary

Daily Weather History Graph

Daily Weather History Graph

Search for Another Location

Airport:

Trip Planner

Search our weather history database for the weather conditions in past years. The results will help you decide how hot, cold, wet, or windy it might be!

Date:

Astronomy

Mar. 05, 2013 Rise Set
Actual Time 7:01 AM EST 6:38 PM EST
Civil Twilight 6:36 AM EST 7:03 PM EST
Nautical Twilight 6:07 AM EST 7:32 PM EST
Astronomical Twilight 5:38 AM EST 8:01 PM EST
Moon 2:00 AM EST (3/5) 12:28 PM EST (3/5)
Length of Visible Light 12h 26m
Length of Day
11h 36m
Last Quarter, 41% of the Moon is Illuminated
Mar 5
Last Quarter
Mar 11
New
Mar 19
First Quarter
Mar 27
Full
Apr 3
Last Quarter

Hourly Weather History & Observations

Time (EST) Temp. Windchill Dew Point Humidity Pressure Visibility Wind Dir Wind Speed Gust Speed Precip Events Conditions
12:58 AM 49.8 °F - 30.4 °F 47% 30.06 in 10.0 mi South 2.3 mph - N/A   Overcast
1:58 AM 50.5 °F - 32.2 °F 49% 30.04 in 10.0 mi South 5.8 mph - N/A   Overcast
2:58 AM 51.1 °F - 36.0 °F 56% 30.00 in 10.0 mi South 9.2 mph - N/A   Overcast
3:58 AM 51.1 °F - 39.4 °F 64% 29.99 in 10.0 mi SSW 5.8 mph - N/A   Overcast
4:58 AM 51.4 °F - 42.4 °F 71% 29.99 in 10.0 mi SSW 8.1 mph - N/A   Overcast
5:58 AM 51.4 °F - 44.2 °F 76% 29.98 in 10.0 mi SSW 8.1 mph - N/A   Overcast
6:58 AM 50.7 °F - 45.0 °F 81% 29.99 in 7.0 mi SSW 9.2 mph - N/A   Mostly Cloudy
7:58 AM 51.8 °F - 46.6 °F 82% 29.99 in 10.0 mi SSW 10.4 mph - N/A   Overcast
8:58 AM 54.3 °F - 48.0 °F 79% 29.98 in 10.0 mi SSW 10.4 mph 19.6 mph N/A   Mostly Cloudy
9:58 AM 59.0 °F - 49.6 °F 71% 29.95 in 10.0 mi SW 15.0 mph 25.3 mph N/A   Mostly Cloudy
10:58 AM 63.5 °F - 50.4 °F 62% 29.92 in 10.0 mi SSW 18.4 mph 25.3 mph N/A   Mostly Cloudy
11:58 AM 64.4 °F - 51.3 °F 62% 29.89 in 10.0 mi SW 12.7 mph 20.7 mph N/A   Overcast
12:43 PM 62.6 °F - 51.8 °F 68% 29.89 in 10.0 mi SSW 12.7 mph 25.3 mph N/A   Overcast
12:58 PM 61.7 °F - 51.6 °F 69% 29.87 in 10.0 mi SSW 13.8 mph 26.5 mph N/A   Overcast
1:58 PM 63.5 °F - 52.5 °F 67% 29.81 in 10.0 mi South 12.7 mph 19.6 mph N/A   Overcast
2:33 PM 64.4 °F - 53.6 °F 68% 29.76 in 10.0 mi South 16.1 mph 27.6 mph N/A   Overcast
2:53 PM 62.6 °F - 53.6 °F 72% 29.77 in 10.0 mi SSW 12.7 mph 19.6 mph N/A   Overcast
2:58 PM 63.1 °F - 53.1 °F 70% 29.76 in 10.0 mi South 9.2 mph 19.6 mph N/A   Overcast
3:36 PM 62.6 °F - 53.6 °F 72% 29.73 in 7.0 mi SSW 13.8 mph 24.2 mph N/A Rain Light Rain
3:57 PM 60.8 °F - 55.4 °F 82% 29.71 in 10.0 mi South 9.2 mph - N/A Rain , Thunderstorm Light Thunderstorms and Rain
3:58 PM 60.6 °F - 56.1 °F 85% 29.71 in 10.0 mi SSW 9.2 mph - 0.04 in Rain , Thunderstorm Light Thunderstorms and Rain
4:46 PM 59.0 °F - 57.2 °F 94% 29.72 in 2.0 mi WSW 6.9 mph - N/A Rain , Thunderstorm Light Thunderstorms and Rain
4:58 PM 59.0 °F - 57.2 °F 94% 29.75 in 2.0 mi West 18.4 mph 23.0 mph 0.22 in Rain , Thunderstorm Light Thunderstorms and Rain
5:10 PM 59.0 °F - 57.2 °F 94% 29.75 in 10.0 mi West 17.3 mph - N/A   Mostly Cloudy
5:58 PM 57.9 °F - 52.9 °F 83% 29.78 in 10.0 mi WNW 15.0 mph 31.1 mph 0.02 in   Mostly Cloudy
6:03 PM 57.2 °F - 53.6 °F 88% 29.78 in 10.0 mi WNW 23.0 mph 27.6 mph N/A   Mostly Cloudy
6:58 PM 51.4 °F - 44.1 °F 76% 29.84 in 10.0 mi WNW 24.2 mph 35.7 mph N/A   Mostly Cloudy
7:58 PM 45.1 °F 36.9 °F 37.0 °F 73% 29.90 in 10.0 mi West 21.9 mph 36.8 mph N/A   Mostly Cloudy
8:58 PM 42.3 °F 31.4 °F 33.1 °F 70% 29.92 in 10.0 mi West 31.1 mph 42.6 mph 0.04 in   Overcast
9:08 PM 41.0 °F 29.8 °F 32.0 °F 70% 29.92 in 10.0 mi West 29.9 mph 40.3 mph N/A   Overcast
9:58 PM 39.7 °F 28.5 °F 28.8 °F 65% 29.94 in 10.0 mi West 27.6 mph 36.8 mph N/A   Overcast
10:58 PM 39.2 °F 30.8 °F 28.0 °F 64% 29.95 in 10.0 mi WNW 15.0 mph 23.0 mph N/A   Overcast
11:58 PM 39.2 °F 30.8 °F 27.1 °F 62% 29.94 in 10.0 mi WNW 15.0 mph 21.9 mph N/A   Overcast